Location: Armidale
(30.5016°S, 151.6662°E)
Time: 04:02:49
(UTC+10:00)

ISS - Visible Passes

Search period start: 15 May 2021 00:00
Search period end: 25 May 2021 00:00
Orbit: 417 x 422 km, 51.6° (Epoch: 14 May)

Date Brightness Start Highest point End Pass type
(mag) Time Alt. Az. Time Alt. Az. Time Alt. Az.
17 May 0.3 05:58:09 10° NE 05:58:36 10° NE 05:59:05 10° ENE visible
19 May -2.1 05:57:00 10° NNW 06:00:11 38° NE 06:03:24 10° ESE visible
20 May -0.9 05:10:18 10° N 05:12:51 20° NE 05:15:24 10° ESE visible
21 May -0.3 04:24:58 10° NE 04:25:33 10° NE 04:26:07 10° ENE visible
21 May -3.5 05:58:39 10° WNW 06:01:58 49° SW 06:05:19 10° SSE visible
22 May -3.7 05:12:48 27° NW 05:14:30 82° NE 05:17:56 10° SE visible
23 May -1.3 04:28:44 23° ESE 04:28:44 23° ESE 04:30:18 10° ESE visible
23 May -1.9 06:01:46 10° WSW 06:04:01 17° SW 06:06:18 10° S visible
24 May -2.3 05:17:15 24° SSW 05:17:15 24° SSW 05:19:23 10° SSE visible
